| time (UTC) | temp C | wind direction | speed KPH | gust KPH | rain 1hr cm | rain 24hr cm | rain mn cm | humidity % | barometer mb |
| 20260507234549 | 21 | 187 | 11.3 | 24.1 | 0.00 | 0.00 | 0.00 | 35 | 1013.1 |
| 20260507233048 | 21 | 232 | 8.0 | 17.7 | 0.00 | 0.00 | 0.00 | 36 | 1012.9 |
| 20260507231554 | 21 | 200 | 14.5 | 24.1 | 0.00 | 0.00 | 0.00 | 35 | 1012.9 |
| 20260507230052 | 21 | 202 | 8.0 | 17.7 | 0.00 | 0.00 | 0.00 | 33 | 1012.8 |
| 20260507224552 | 21 | 126 | 8.0 | 41.8 | 0.00 | 0.00 | 0.00 | 33 | 1012.6 |
| 20260507223048 | 21 | 61 | 6.4 | 17.7 | 0.00 | 0.00 | 0.00 | 36 | 1012.8 |
| 20260507221555 | 21 | 301 | 3.2 | 22.5 | 0.00 | 0.00 | 0.00 | 36 | 1012.8 |
| 20260507220057 | 22 | 287 | 1.6 | 16.1 | 0.00 | 0.00 | 0.00 | 34 | 1013.0 |
| 20260507214608 | 21 | 16 | 6.4 | 17.7 | 0.00 | 0.00 | 0.00 | 36 | 1013.1 |
| 20260507213053 | 21 | 45 | 4.8 | 12.9 | 0.00 | 0.00 | 0.00 | 37 | 1013.4 |
| 20260507211559 | 20 | 353 | 3.2 | 11.3 | 0.00 | 0.00 | 0.00 | 37 | 1013.4 |
| 20260507210059 | 20 | 298 | 4.8 | 16.1 | 0.00 | 0.00 | 0.00 | 37 | 1013.5 |
| 20260507204551 | 21 | 262 | 4.8 | 12.9 | 0.00 | 0.00 | 0.00 | 36 | 1013.4 |
| 20260507203105 | 20 | 133 | 9.7 | 17.7 | 0.00 | 0.00 | 0.00 | 37 | 1013.6 |
| 20260507201559 | 20 | 302 | 3.2 | 16.1 | 0.00 | 0.00 | 0.00 | 37 | 1013.6 |
| 20260507200106 | 20 | 357 | 3.2 | 16.1 | 0.00 | 0.00 | 0.00 | 39 | 1013.9 |
| 20260507194546 | 19 | 358 | 1.6 | 14.5 | 0.00 | 0.00 | 0.00 | 40 | 1013.9 |
| 20260507193057 | 18 | 208 | 8.0 | 20.9 | 0.00 | 0.00 | 0.00 | 41 | 1013.7 |
| 20260507191555 | 19 | 314 | 3.2 | 12.9 | 0.00 | 0.00 | 0.00 | 40 | 1013.7 |
| 20260507190051 | 19 | 314 | 8.0 | 20.9 | 0.00 | 0.00 | 0.00 | 40 | 1013.7 |
| 20260507184556 | 19 | 208 | 3.2 | 17.7 | 0.00 | 0.00 | 0.00 | 42 | 1013.6 |
| 20260507183050 | 18 | 191 | 8.0 | 20.9 | 0.00 | 0.00 | 0.00 | 41 | 1013.7 |
| 20260507181548 | 17 | 0 | 8.0 | 17.7 | 0.00 | 0.00 | 0.00 | 48 | 1013.9 |
| 20260507180047 | 18 | 201 | 8.0 | 16.1 | 0.00 | 0.00 | 0.00 | 46 | 1014.3 |
| 20260507174550 | 17 | 245 | 6.4 | 17.7 | 0.00 | 0.00 | 0.00 | 45 | 1014.3 |
| 20260507173050 | 16 | 224 | 12.9 | 38.6 | 0.00 | 0.00 | 0.00 | 46 | 1014.6 |
| 20260507171554 | 16 | 240 | 3.2 | 19.3 | 0.00 | 0.00 | 0.00 | 48 | 1014.7 |
| 20260507170059 | 16 | 196 | 3.2 | 32.2 | 0.00 | 0.00 | 0.00 | 44 | 1014.5 |
| 20260507164600 | 17 | 230 | 11.3 | 19.3 | 0.00 | 0.00 | 0.00 | 43 | 1014.2 |
| 20260507163051 | 16 | 195 | 1.6 | 14.5 | 0.00 | 0.00 | 0.00 | 46 | 1014.3 |
| 20260507161550 | 16 | 199 | 4.8 | 14.5 | 0.00 | 0.00 | 0.00 | 46 | 1014.7 |
| 20260507160047 | 16 | 45 | 1.6 | 11.3 | 0.00 | 0.00 | 0.00 | 47 | 1014.6 |
| 20260507154553 | 15 | 0 | 3.2 | 6.4 | 0.00 | 0.00 | 0.00 | 51 | 1014.5 |
| 20260507153047 | 13 | 0 | 3.2 | 6.4 | 0.00 | 0.00 | 0.00 | 54 | 1014.6 |
| 20260507151550 | 12 | 209 | 0.0 | 3.2 | 0.00 | 0.00 | 0.00 | 63 | 1014.7 |
| 20260507150049 | 12 | 169 | 0.0 | 4.8 | 0.00 | 0.00 | 0.00 | 66 | 1014.7 |
| 20260507144548 | 11 | 169 | 1.6 | 4.8 | 0.00 | 0.00 | 0.00 | 70 | 1014.5 |
| 20260507143057 | 10 | 160 | 0.0 | 4.8 | 0.00 | 0.00 | 0.00 | 74 | 1014.6 |
| 20260507141553 | 10 | 0 | 1.6 | 4.8 | 0.00 | 0.00 | 0.00 | 76 | 1014.6 |
| 20260507140053 | 8 | 155 | 4.8 | 8.0 | 0.00 | 0.00 | 0.00 | 79 | 1014.5 |
| 20260507134603 | 7 | 182 | 0.0 | 4.8 | 0.00 | 0.00 | 0.00 | 82 | 1014.4 |
| 20260507133127 | 6 | 0 | 0.0 | 3.2 | 0.00 | 0.00 | 0.00 | 82 | 1014.3 |
| 20260507131552 | 6 | 204 | 3.2 | 6.4 | 0.00 | 0.00 | 0.00 | 83 | 1014.1 |
| 20260507130106 | 5 | 267 | 0.0 | 3.2 | 0.00 | 0.00 | 0.00 | 84 | 1014.1 |
| 20260507124547 | 5 | 230 | 3.2 | 4.8 | 0.00 | 0.00 | 0.00 | 82 | 1014.0 |
| 20260507123053 | 6 | 25 | 1.6 | 6.4 | 0.00 | 0.00 | 0.00 | 79 | 1013.8 |
| 20260507121605 | 6 | 53 | 0.0 | 6.4 | 0.00 | 0.00 | 0.00 | 80 | 1013.7 |
| 20260507120104 | 6 | 330 | 1.6 | 9.7 | 0.00 | 0.00 | 0.00 | 79 | 1013.5 |
| 20260507114632 | 6 | 334 | 1.6 | 4.8 | 0.00 | 0.00 | 0.00 | 83 | 1013.2 |
| 20260507113045 | 5 | 266 | 0.0 | 4.8 | 0.00 | 0.00 | 0.00 | 84 | 1013.0 |
| 20260507111544 | 5 | 187 | 0.0 | 8.0 | 0.00 | 0.00 | 0.00 | 86 | 1013.1 |
| 20260507110043 | 5 | 276 | 1.6 | 4.8 | 0.00 | 0.00 | 0.00 | 85 | 1013.0 |
| 20260507104548 | 5 | 217 | 1.6 | 4.8 | 0.00 | 0.00 | 0.00 | 85 | 1012.8 |
| 20260507103048 | 5 | 146 | 1.6 | 8.0 | 0.00 | 0.00 | 0.00 | 82 | 1012.8 |
| 20260507101547 | 6 | 0 | 0.0 | 6.4 | 0.00 | 0.00 | 0.00 | 82 | 1012.8 |
| 20260507100047 | 6 | 0 | 0.0 | 4.8 | 0.00 | 0.00 | 0.00 | 81 | 1012.8 |
| 20260507094545 | 6 | 0 | 3.2 | 6.4 | 0.00 | 0.00 | 0.00 | 80 | 1012.8 |
| 20260507093047 | 7 | 237 | 1.6 | 4.8 | 0.00 | 0.00 | 0.00 | 78 | 1012.8 |
| 20260507091546 | 7 | 216 | 1.6 | 6.4 | 0.00 | 0.00 | 0.00 | 75 | 1012.8 |
| 20260507090049 | 8 | 106 | 1.6 | 4.8 | 0.00 | 0.00 | 0.00 | 73 | 1012.8 |
| 20260507084555 | 8 | 0 | 1.6 | 6.4 | 0.00 | 0.00 | 0.00 | 73 | 1012.7 |
| 20260507083044 | 8 | 269 | 0.0 | 3.2 | 0.00 | 0.00 | 0.00 | 73 | 1012.5 |
| 20260507081552 | 8 | 285 | 3.2 | 8.0 | 0.00 | 0.00 | 0.00 | 72 | 1012.6 |
| 20260507080111 | 9 | 223 | 0.0 | 4.8 | 0.00 | 0.00 | 0.00 | 69 | 1012.8 |
| 20260507074548 | 10 | 0 | 0.0 | 3.2 | 0.00 | 0.00 | 0.00 | 67 | 1012.8 |
| 20260507073057 | 11 | 0 | 0.0 | 3.2 | 0.00 | 0.00 | 0.00 | 64 | 1012.7 |
| 20260507071549 | 12 | 291 | 0.0 | 4.8 | 0.00 | 0.00 | 0.00 | 61 | 1012.6 |
| 20260507070050 | 13 | 234 | 6.4 | 14.5 | 0.00 | 0.00 | 0.00 | 56 | 1012.6 |
| 20260507064549 | 12 | 231 | 8.0 | 16.1 | 0.00 | 0.00 | 0.00 | 62 | 1012.5 |
| 20260507063057 | 8 | 237 | 3.2 | 9.7 | 0.00 | 0.00 | 0.00 | 80 | 1012.5 |
| 20260507061554 | 8 | 168 | 3.2 | 6.4 | 0.00 | 0.00 | 0.00 | 79 | 1012.7 |
| 20260507060051 | 8 | 223 | 1.6 | 11.3 | 0.00 | 0.00 | 0.00 | 79 | 1012.8 |
| 20260507054554 | 9 | 58 | 3.2 | 9.7 | 0.00 | 0.00 | 0.00 | 75 | 1012.8 |
| 20260507053052 | 9 | 0 | 1.6 | 4.8 | 0.00 | 0.00 | 0.00 | 77 | 1012.6 |
| 20260507051552 | 10 | 0 | 0.0 | 4.8 | 0.00 | 0.00 | 0.00 | 75 | 1012.5 |
| 20260507050051 | 10 | 311 | 3.2 | 9.7 | 0.00 | 0.00 | 0.00 | 74 | 1012.4 |
| 20260507044551 | 10 | 137 | 1.6 | 8.0 | 0.00 | 0.00 | 0.00 | 73 | 1012.3 |
| 20260507043051 | 10 | 338 | 1.6 | 4.8 | 0.00 | 0.00 | 0.00 | 74 | 1012.4 |
| 20260507041553 | 11 | 269 | 3.2 | 6.4 | 0.00 | 0.00 | 0.00 | 75 | 1012.3 |
| 20260507040056 | 11 | 0 | 0.0 | 4.8 | 0.00 | 0.00 | 0.00 | 74 | 1012.4 |
| 20260507034549 | 12 | 0 | 1.6 | 6.4 | 0.00 | 0.00 | 0.00 | 72 | 1012.4 |
| 20260507033056 | 12 | 189 | 0.0 | 6.4 | 0.00 | 0.00 | 0.00 | 69 | 1012.3 |
| 20260507031555 | 13 | 216 | 1.6 | 6.4 | 0.00 | 0.00 | 0.00 | 67 | 1012.1 |
| 20260507030055 | 13 | 241 | 0.0 | 4.8 | 0.00 | 0.00 | 0.00 | 66 | 1012.1 |
| 20260507024604 | 14 | 97 | 1.6 | 4.8 | 0.00 | 0.00 | 0.00 | 65 | 1012.1 |
| 20260507023050 | 15 | 36 | 1.6 | 4.8 | 0.00 | 0.00 | 0.00 | 57 | 1012.1 |
| 20260507021553 | 15 | 0 | 1.6 | 4.8 | 0.00 | 0.00 | 0.00 | 59 | 1012.3 |
| 20260507020106 | 16 | 0 | 0.0 | 4.8 | 0.00 | 0.00 | 0.00 | 59 | 1011.9 |
| 20260507014552 | 16 | 249 | 0.0 | 3.2 | 0.00 | 0.00 | 0.00 | 58 | 1012.0 |
| 20260507013056 | 16 | 249 | 0.0 | 3.2 | 0.00 | 0.00 | 0.00 | 53 | 1012.1 |
| 20260507011553 | 17 | 249 | 0.0 | 3.2 | 0.00 | 0.00 | 0.00 | 54 | 1012.1 |
| 20260507010053 | 17 | 204 | 1.6 | 6.4 | 0.00 | 0.00 | 0.00 | 54 | 1012.1 |
| 20260507004554 | 17 | 209 | 0.0 | 3.2 | 0.00 | 0.00 | 0.00 | 53 | 1012.3 |
| 20260507003052 | 17 | 160 | 3.2 | 8.0 | 0.00 | 0.00 | 0.00 | 51 | 1012.5 |
| 20260507001551 | 17 | 0 | 0.0 | 4.8 | 0.00 | 0.00 | 0.00 | 50 | 1012.7 |
| 20260507000053 | 17 | 230 | 4.8 | 43.5 | 0.00 | 0.00 | 0.00 | 47 | 1013.2 |